Weather in Filinskaya

Russia / Arkhangel'skaya Oblast'     60°48′33″N   43°01′08″E
temp.,
°C
wind,
m/s
gust,
m/s
humid.,
%
clouds,
%
prec.,
mm/h
press.,
hPa
HPBL,
m
5 march, fri
fri500:00−10w379582 0.2 997269
03:00−11nw369691 0.4 999260
06:00−16nw2697100 0.1 1000162
09:00−15nw379396 0.1 1002360
12:00−12nw368790 0.0 1003710
15:00−11nw368795 0.1 1005863
18:00−13nw389498 0.1 1007414
21:00−15wnw259792 0.1 1008129
6 march, sat
sat600:00−18wnw239968 0.0 100947
03:00−19wnw239869 0.1 101180
06:00−20wnw2510070 0.0 1011114
09:00−18wnw249561 0.1 1012193
12:00−13wsw248745 0.0 1012470
15:00−11wsw358873 0.1 1010722
18:00−14sw2395100 0.1 100934
21:00−16ssw239651 0.1 100877
7 march, sun
sun700:00−17s36970 0.0 1005129
03:00−16sse499627 0.0 1003256
06:00−14sse51294100 0.0 999382
09:00−11sse51193100 0.3 997621
12:00−9sse51092100 0.8 995707
15:00−8se5992100 1.3 994773
18:00−9ese4994100 0.3 993494
21:00−9e41094100 0.8 993564
8 march, mon
mon800:00−10e41094100 0.4 993543
03:00−11ene4994100 0.8 994486
06:00−12ene4994100 0.4 995584
09:00−13ne4893100 0.9 997596
12:00−12ne4791100 0.3 999714
15:00−11nne4892100 0.8 1001755
18:00−13nne41094100 0.5 1003686
21:00−15nne41094100 0.8 1006538
9 march, tue
tue900:00−17n4995100 0.1 1007456
03:00−22nnw4898100 0.1 1009293
06:00−26nnw389898 0.0 1011191
09:00−25nnw359695 0.0 1013252
12:00−20nnw359491 0.0 1014394
15:00−18nnw359196 0.0 1015496
18:00−22nnw3797100 0.0 1016139
21:00−27n239862 0.0 101858